Miscellaneous Local Product
Issued by NWS Hastings, NE

Home | Current Version | Previous Version | Text Only | Print | Product List | Glossary Off
Versions: 1 2 3 4 5 6 7 8 9 10 11 12 13 14 15 16 17 18 19 20 21 22 23 24 25 26 27 28 29 30 31 32 33 34 35 36 37 38 39 40 41 42 43 44 45 46 47 48 49 50

000
AXUS43 KGID 261902
MISGRI

GID CWA HOURLY WEATHER ROUNDUP
NATIONAL WEATHER SERVICE HASTINGS NE
200 PM CDT SUN APR 26 2015

NOTE: "FAIR" INDICATES FEW OR NO CLOUDS BELOW 12,000 FEET WITH NO
SIGNIFICANT WEATHER AND/OR OBSTRUCTIONS TO VISIBILITY.

...SOUTH CENTRAL NEBRASKA...

CITY           SKY/WX    TMP DP  RH WIND       PRES   REMARKS
GRAND ISLAND   PTSUNNY   55  42  61 E15       30.01F
HASTINGS       CLOUDY    54  43  66 E15G21    29.98F
KEARNEY        CLOUDY    54  41  62 E16       30.00S
ORD            MOSUNNY   57  39  51 SE14G24   30.00F
YORK           MOSUNNY   57  45  62 E17       30.00F
AURORA         PTSUNNY   56  44  63 E16       30.00S
LEXINGTON      CLOUDY    51  43  72 E12G18    29.98F
HOLDREGE       CLOUDY    51  42  71 E17       29.98F
HEBRON         CLOUDY    52  41  66 E14       29.99S

...NEBRASKA PANHANDLE...

CITY           SKY/WX    TMP DP  RH WIND       PRES   REMARKS
CHADRON        CLOUDY    48  44  86 SE9       29.99R
ALLIANCE       CLOUDY    44  43  96 SE12      29.97S
SCOTTSBLUFF    LGT RAIN  46  32  58 E16G25    29.95S
SIDNEY         CLOUDY    42  41  96 E12       29.96S

...WESTERN AND NORTH CENTRAL NEBRASKA...

CITY           SKY/WX    TMP DP  RH WIND       PRES   REMARKS
VALENTINE      PTSUNNY   52  38  58 SE9G18    30.03S
AINSWORTH      PTSUNNY   58  40  51 E14G22    30.01S
ONEILL         SUNNY     60  34  37 E14G23    30.03F
BROKEN BOW     CLOUDY    56  40  55 E14G26    29.99F
IMPERIAL       CLOUDY    43  41  93 E14       29.96F FOG
NORTH PLATTE   NOT AVBL
MCCOOK         CLOUDY    46  43  89 E15       29.96F FOG

...EASTERN NEBRASKA...

CITY           SKY/WX    TMP DP  RH WIND       PRES   REMARKS
NORFOLK        SUNNY     60  32  34 E13G21    30.03F
SO SIOUX CITY  SUNNY     63  30  28 SE10G23   30.05F
TEKAMAH        SUNNY     62  32  32 E13G22    30.04F
COLUMBUS       PTSUNNY   57  41  54 E14       30.05S
ALBION         SUNNY     58  37  45 E15       30.02F
OMAHA EPPLEY   MOSUNNY   60  37  42 E12       30.03F
OFFUTT AFB     SUNNY     60  42  50 E12G21    30.02F
MILLARD        SUNNY     58  40  50 E12       30.03S
LINCOLN        MOSUNNY   61  42  49 E13G24    30.02F
NEBRASKA CITY  MOSUNNY   58  36  44 E16       30.01F
BEATRICE       PTSUNNY   56  43  62 E15G21    29.99F
FALLS CITY     CLOUDY    57  42  57 NE12      30.00F

...NORTHERN KANSAS...

CITY           SKY/WX    TMP DP  RH WIND       PRES   REMARKS
GOODLAND       CLOUDY    43  43 100 E17       29.92F FOG
HILL CITY      CLOUDY    48  45  89 E15G22    29.95S FOG
NORTON         CLOUDY    48  45  87 E14       29.95S FOG
PHILLIPSBURG   CLOUDY    52  46  82 E16       29.96F
SMITH CENTER   CLOUDY    52  45  76 NE13      29.97F
HAYS           CLOUDY    48  41  76 E20       29.93S
RUSSELL        CLOUDY    48  47  96 E16       29.93R FOG
CONCORDIA      CLOUDY    50  43  77 E14G22    29.97S
SALINA         CLOUDY    53  45  74 E15G23    29.94F
TOPEKA         CLOUDY    55  44  66 NE13      29.97F



USA.gov is the U.S. government's official web portal to all federal, state and local government web resources and services.